Location: Waco, TX
(31.5480°N, 97.1670°W)
Time: 04:01:27
(UTC-06:00)

ISS - Pass Details

Date: 19 November 2017
Orbit: 401 x 407 km, 51.6° (Epoch: 18 November)

Event Time Altitude Azimuth Distance (km) Brightness Sun altitude
Rises 20:20:03 0° 198° (SSW) 2,306 - -36.5°
Reaches altitude 10° 20:22:23 10° 183° (S) 1,450 - -37.0°
Maximum altitude 20:25:00 23° 129° (SE) 914 - -37.6°
Drops below altitude 10° 20:27:39 10° 74° (ENE) 1,454 - -38.1°
Sets 20:29:59 0° 59° (ENE) 2,316 - -38.6°
